Location: Karaa?a�
(36.7158°N, 30.4165°E)
Time: 09:33:38
(UTC+00:00)

GPS 2-04 Rocket1 - Pass Details

Date: 09 April 2020
Orbit: 419 x 548 km, 35.6° (Epoch: 31 May)

Event Time Altitude Azimuth Distance (km) Brightness Sun altitude
Rises 16:43:52 0° 211° (SSW) 2,573 6.5 -4.0°
Reaches altitude 10° 16:46:39 10° 190° (S) 1,720 5.3 -4.5°
Maximum altitude 16:49:13 17° 150° (SSE) 1,379 4.5 -5.0°
Drops below altitude 10° 16:51:50 10° 110° (ESE) 1,769 4.7 -5.5°
Enters shadow 16:52:43 - 102° (ESE) 2,015 5.0 -5.7°
